Barnwell, SC

3:47 AM EST on February 21, 2017 (GMT -0500)
Barnwell County

Weather History for KBNL - January, 2013

Change the Weather History Date:

Friday, January 4, 2013

  Actual Average (KOGB) Record (KOGB)
Temperature  
Mean Temperature 43 °F -  
Max Temperature 53 °F 56 °F 73 °F (1990)
Min Temperature 33 °F 34 °F 15 °F (1979)
Degree Days  
Heating Degree Days 22    
Moisture  
Dew Point 37 °F    
Average Humidity 87    
Maximum Humidity 100    
Minimum Humidity 51    
Precipitation  
Precipitation 0.00 in - - ()
Sea Level Pressure  
Sea Level Pressure 30.31 in    
Wind  
Wind Speed 0 mph (SW)    
Max Wind Speed 8 mph    
Max Gust Speed -    
Visibility 6 miles    
Events Fog    
Averages and records for this station are not official NWS values.
T = Trace of Precipitation, MM = Missing Value Source: NWS Daily Summary

Daily Weather History Graph

Daily Weather History Graph

Search for Another Location

Airport or City:

Trip Planner

Search our weather history database for the weather conditions in past years. The results will help you decide how hot, cold, wet, or windy it might be!

Date:

Astronomy

Jan. 04, 2013 Rise Set
Actual Time 7:29 AM EST 5:31 PM EST
Civil Twilight 7:02 AM EST 5:59 PM EST
Nautical Twilight 6:31 AM EST 6:29 PM EST
Astronomical Twilight 6:01 AM EST 7:00 PM EST
Moon No Moon Rise 11:35 AM EST (1/4)
Length of Visible Light 10h 56m
Length of Day
10h 02m
Waning Gibbous, 55% of the Moon is Illuminated
Jan 4
Waning Gibbous
Jan 4
Last Quarter
Jan 11
New
Jan 18
First Quarter
Jan 26
Full

Hourly Weather History & Observations

Time (EST) Temp. Dew Point Humidity Pressure Visibility Wind Dir Wind Speed Gust Speed Precip Events Conditions
12:15 AM 42.8 °F 41.0 °F 93% 30.27 in 4.0 mi Calm Calm - N/A   Overcast
12:35 AM 42.8 °F 41.0 °F 93% 30.27 in 3.0 mi Calm Calm - N/A   Scattered Clouds
12:55 AM 41.0 °F 39.2 °F 93% 30.28 in 3.0 mi Calm Calm - N/A   Mostly Cloudy
1:15 AM 39.2 °F 39.2 °F 100% 30.29 in 4.0 mi Calm Calm - N/A   Mostly Cloudy
1:35 AM 41.0 °F 39.2 °F 93% 30.29 in 5.0 mi Calm Calm - N/A   Partly Cloudy
1:55 AM 39.2 °F 39.2 °F 100% 30.29 in 6.0 mi Calm Calm - N/A   Clear
2:15 AM 37.4 °F 37.4 °F 100% 30.30 in 5.0 mi Calm Calm - N/A   Clear
2:55 AM 39.2 °F 37.4 °F 93% 30.31 in 6.0 mi Calm Calm - N/A   Clear
3:15 AM 37.4 °F 37.4 °F 100% 30.30 in 5.0 mi Calm Calm - N/A   Clear
3:35 AM 37.4 °F 35.6 °F 93% 30.30 in 4.0 mi Calm Calm - N/A   Clear
3:55 AM 33.8 °F 33.8 °F 100% 30.30 in 3.0 mi Calm Calm - N/A   Clear
4:15 AM 33.8 °F 33.8 °F 100% 30.29 in 2.0 mi Calm Calm - N/A   Clear
4:35 AM 35.6 °F 33.8 °F 93% 30.30 in 4.0 mi Calm Calm - N/A   Clear
6:55 AM 33.8 °F 33.8 °F 100% 30.32 in 0.2 mi Calm Calm - N/A Fog Fog
7:15 AM 33.8 °F 33.8 °F 100% 30.33 in 0.2 mi Calm Calm - N/A Fog Fog
7:35 AM 33.8 °F 33.8 °F 100% 30.34 in 0.2 mi Calm Calm - N/A Fog Fog
7:55 AM 33.8 °F 33.8 °F 100% 30.34 in 0.2 mi Calm Calm - N/A Fog Fog
8:15 AM 33.8 °F 33.8 °F 100% 30.34 in 0.2 mi Calm Calm - N/A Fog Fog
8:35 AM 33.8 °F 33.8 °F 100% 30.35 in 0.2 mi Calm Calm - N/A Fog Fog
9:15 AM 35.6 °F 35.6 °F 100% 30.35 in 0.2 mi Calm Calm - N/A Fog Fog
9:35 AM 35.6 °F 35.6 °F 100% 30.36 in 0.2 mi Calm Calm - N/A Fog Fog
9:55 AM 37.4 °F 37.4 °F 100% 30.36 in 0.2 mi Calm Calm - N/A Fog Fog
10:15 AM 37.4 °F 37.4 °F 100% 30.36 in 0.2 mi Calm Calm - N/A Fog Fog
10:35 AM 39.2 °F 39.2 °F 100% 30.37 in 0.2 mi Calm Calm - N/A Fog Fog
11:15 AM 39.2 °F 39.2 °F 100% 30.37 in 0.5 mi Calm Calm - N/A Fog Fog
11:35 AM 41.0 °F 41.0 °F 100% 30.37 in 2.0 mi Calm Calm - N/A   Overcast
11:55 AM 41.0 °F 41.0 °F 100% 30.36 in 3.0 mi Calm Calm - N/A   Overcast
12:15 PM 41.0 °F 41.0 °F 100% 30.35 in 5.0 mi Calm Calm - N/A   Overcast
12:35 PM 42.8 °F 42.8 °F 100% 30.34 in 7.0 mi Calm Calm - N/A   Overcast
1:15 PM 46.4 °F 39.2 °F 76% 30.33 in 10.0 mi Calm Calm - N/A   Clear
1:35 PM 48.2 °F 37.4 °F 66% 30.32 in 10.0 mi South 4.6 mph - N/A   Clear
2:15 PM 50.0 °F 35.6 °F 58% 30.30 in 10.0 mi Calm Calm - N/A   Clear
2:35 PM 51.8 °F 35.6 °F 54% 30.29 in 10.0 mi Calm Calm - N/A   Clear
2:55 PM 51.8 °F 35.6 °F 54% 30.27 in 10.0 mi Calm Calm - N/A   Clear
3:15 PM 53.6 °F 35.6 °F 51% 30.27 in 10.0 mi Calm Calm - N/A   Clear
3:35 PM 53.6 °F 35.6 °F 51% 30.28 in 10.0 mi SW 6.9 mph - N/A   Clear
3:55 PM 53.6 °F 37.4 °F 54% 30.28 in 10.0 mi WSW 4.6 mph - N/A   Clear
4:15 PM 53.6 °F 35.6 °F 51% 30.28 in 10.0 mi WSW 8.1 mph - N/A   Clear
4:55 PM 53.6 °F 35.6 °F 51% 30.29 in 10.0 mi Calm Calm - N/A   Clear
5:15 PM 51.8 °F 35.6 °F 54% 30.28 in 10.0 mi Calm Calm - N/A   Clear
5:35 PM 50.0 °F 37.4 °F 62% 30.28 in 10.0 mi Calm Calm - N/A   Clear
5:55 PM 46.4 °F 37.4 °F 71% 30.29 in 10.0 mi Calm Calm - N/A   Clear
6:15 PM 44.6 °F 39.2 °F 81% 30.28 in 10.0 mi Calm Calm - N/A   Clear
6:35 PM 42.8 °F 37.4 °F 81% 30.29 in 10.0 mi Calm Calm - N/A   Clear
6:55 PM 42.8 °F 37.4 °F 81% 30.30 in 9.0 mi Calm Calm - N/A   Clear
7:15 PM 42.8 °F 39.2 °F 87% 30.30 in 10.0 mi Calm Calm - N/A   Clear
7:35 PM 41.0 °F 37.4 °F 87% 30.31 in 10.0 mi Calm Calm - N/A   Clear
7:55 PM 41.0 °F 37.4 °F 87% 30.32 in 10.0 mi Calm Calm - N/A   Clear
8:15 PM 41.0 °F 37.4 °F 87% 30.32 in 10.0 mi Calm Calm - N/A   Clear
8:35 PM 42.8 °F 37.4 °F 81% 30.32 in 10.0 mi Calm Calm - N/A   Clear
8:55 PM 41.0 °F 37.4 °F 87% 30.32 in 10.0 mi Calm Calm - N/A   Clear
9:15 PM 41.0 °F 39.2 °F 93% 30.33 in 8.0 mi Calm Calm - N/A   Clear
9:35 PM 37.4 °F 35.6 °F 93% 30.33 in 10.0 mi Calm Calm - N/A   Clear
10:15 PM 35.6 °F 35.6 °F 100% 30.34 in 8.0 mi Calm Calm - N/A   Clear
10:35 PM 33.8 °F 33.8 °F 100% 30.33 in 10.0 mi Calm Calm - N/A   Clear
10:55 PM 35.6 °F 33.8 °F 93% 30.33 in 10.0 mi Calm Calm - N/A   Clear
11:15 PM 37.4 °F 35.6 °F 93% 30.33 in 10.0 mi Calm Calm - N/A   Clear
11:35 PM 37.4 °F 37.4 °F 100% 30.33 in 10.0 mi Calm Calm - N/A   Clear
11:55 PM 37.4 °F 35.6 °F 93% 30.33 in 10.0 mi Calm Calm - N/A   Clear